When you browse on this site, cookies collect data to enhance your experience and personalize the content and advertising you see.
Visit our Privacy Policy to learn more. By continuing to use the site, you agree to this use of cookies and data.

Meteo pe oră la Izvarino

Astăzi, 13 Iulie, Luni

Timp Temperatura Precipitaţii Vânt Presiune Umiditate
00:00 +19°C° 0 mm 1 m/s 740 mmHg 84%
01:00 +19°C° 0 mm 1 m/s 739 mmHg 85%
02:00 +18°C° 0 mm 1 m/s 739 mmHg 87%
03:00 +18°C° 0 mm 1 m/s 739 mmHg 88%
04:00 +18°C° 0 mm 1 m/s 739 mmHg 88%
05:00 +19°C° 0 mm 1 m/s 739 mmHg 88%
06:00 +19°C° 0 mm 1 m/s 738 mmHg 89%
07:00 +21°C° 0 mm 1 m/s 738 mmHg 85%
08:00 +22°C° 0 mm 1 m/s 738 mmHg 82%
09:00 +23°C° 0 mm 2 m/s 739 mmHg 79%
10:00 +24°C° 0.1 mm 2 m/s 738 mmHg 75%
11:00 +25°C° 0.1 mm 2 m/s 738 mmHg 72%
12:00 +26°C° 0.1 mm 2 m/s 738 mmHg 69%
13:00 +25°C° 1.1 mm 2 m/s 738 mmHg 71%
14:00 +25°C° 1.1 mm 2 m/s 738 mmHg 73%
15:00 +25°C° 1.1 mm 2 m/s 738 mmHg 74%
16:00 +24°C° 0.7 mm 2 m/s 737 mmHg 78%
17:00 +23°C° 0.7 mm 2 m/s 737 mmHg 81%
18:00 +23°C° 0.7 mm 1 m/s 736 mmHg 84%
19:00 +21°C° 0.1 mm 2 m/s 737 mmHg 87%
20:00 +20°C° 0.1 mm 2 m/s 737 mmHg 90%
21:00 +19°C° 0.1 mm 2 m/s 737 mmHg 92%
22:00 +18°C° 0.2 mm 3 m/s 736 mmHg 93%
23:00 +18°C° 0.2 mm 3 m/s 736 mmHg 94%

Mâine, 14 Iulie, Marţi

Timp Temperatura Precipitaţii Vânt Presiune Umiditate
00:00 +17°C° 0.2 mm 4 m/s 736 mmHg 95%
01:00 +17°C° 0.2 mm 4 m/s 736 mmHg 96%
02:00 +17°C° 0.2 mm 4 m/s 736 mmHg 96%
03:00 +17°C° 0.2 mm 4 m/s 736 mmHg 97%
04:00 +17°C° 0.6 mm 4 m/s 735 mmHg 97%
05:00 +17°C° 0.6 mm 4 m/s 734 mmHg 97%
06:00 +18°C° 0.6 mm 4 m/s 734 mmHg 97%
07:00 +18°C° 0.1 mm 4 m/s 734 mmHg 97%
08:00 +18°C° 0.1 mm 3 m/s 734 mmHg 96%
09:00 +18°C° 0.1 mm 3 m/s 735 mmHg 96%
10:00 +18°C° 0.4 mm 3 m/s 735 mmHg 96%
11:00 +19°C° 0.4 mm 3 m/s 734 mmHg 95%
12:00 +19°C° 0.4 mm 4 m/s 734 mmHg 95%
13:00 +19°C° 0.5 mm 4 m/s 734 mmHg 95%
14:00 +19°C° 0.5 mm 4 m/s 734 mmHg 96%
15:00 +19°C° 0.5 mm 5 m/s 734 mmHg 96%
16:00 +19°C° 1.8 mm 4 m/s 733 mmHg 96%
17:00 +19°C° 1.8 mm 3 m/s 733 mmHg 97%
18:00 +19°C° 1.8 mm 3 m/s 732 mmHg 97%
19:00 +19°C° 1.4 mm 2 m/s 732 mmHg 97%
20:00 +18°C° 1.4 mm 2 m/s 731 mmHg 97%
21:00 +18°C° 1.4 mm 2 m/s 731 mmHg 97%
22:00 +18°C° 0.2 mm 2 m/s 731 mmHg 97%
23:00 +18°C° 0.2 mm 1 m/s 730 mmHg 97%

Poimâine, 15 Iulie, Miercuri

Timp Temperatura Precipitaţii Vânt Presiune Umiditate
00:00 +18°C° 0.2 mm 1 m/s 730 mmHg 97%
01:00 +18°C° 0 mm 1 m/s 730 mmHg 97%
02:00 +16°C° 0 mm 1 m/s 730 mmHg 97%
03:00 +16°C° 0 mm 1 m/s 730 mmHg 97%
04:00 +17°C° 0 mm 2 m/s 730 mmHg 97%
05:00 +17°C° 0 mm 2 m/s 730 mmHg 97%
06:00 +17°C° 0 mm 3 m/s 730 mmHg 97%
07:00 +17°C° 0.1 mm 3 m/s 730 mmHg 96%
08:00 +18°C° 0.1 mm 4 m/s 730 mmHg 95%
09:00 +18°C° 0.1 mm 4 m/s 730 mmHg 93%
10:00 +17°C° 0.3 mm 5 m/s 730 mmHg 92%
11:00 +17°C° 0.3 mm 5 m/s 730 mmHg 90%
12:00 +19°C° 0.3 mm 5 m/s 730 mmHg 89%
13:00 +19°C° 0.6 mm 5 m/s 730 mmHg 86%
14:00 +20°C° 0.6 mm 5 m/s 730 mmHg 84%
15:00 +20°C° 0.6 mm 5 m/s 731 mmHg 82%
16:00 +20°C° 0.9 mm 5 m/s 731 mmHg 83%
17:00 +19°C° 0.9 mm 4 m/s 731 mmHg 85%
18:00 +19°C° 0.9 mm 4 m/s 731 mmHg 87%
19:00 +18°C° 0.6 mm 4 m/s 731 mmHg 90%
20:00 +17°C° 0.6 mm 4 m/s 731 mmHg 93%
21:00 +15°C° 0.6 mm 4 m/s 731 mmHg 95%
22:00 +15°C° 0.1 mm 4 m/s 731 mmHg 96%
23:00 +15°C° 0.1 mm 5 m/s 731 mmHg 96%

16 Iulie, Joi

Timp Temperatura Precipitaţii Vânt Presiune Umiditate
00:00 +15°C° 0.1 mm 5 m/s 731 mmHg 96%
01:00 +15°C° 0.1 mm 5 m/s 731 mmHg 95%
02:00 +15°C° 0.1 mm 5 m/s 732 mmHg 95%
03:00 +15°C° 0.1 mm 5 m/s 732 mmHg 94%
04:00 +14°C° 0.1 mm 5 m/s 732 mmHg 95%
05:00 +14°C° 0.1 mm 5 m/s 732 mmHg 95%
06:00 +14°C° 0.1 mm 5 m/s 732 mmHg 95%
07:00 +14°C° 0 mm 5 m/s 732 mmHg 95%
08:00 +14°C° 0 mm 5 m/s 733 mmHg 94%
09:00 +14°C° 0 mm 5 m/s 733 mmHg 94%
10:00 +14°C° 0 mm 5 m/s 733 mmHg 93%
11:00 +14°C° 0 mm 5 m/s 733 mmHg 92%
12:00 +15°C° 0 mm 5 m/s 734 mmHg 91%
13:00 +15°C° 0.1 mm 5 m/s 734 mmHg 90%
14:00 +15°C° 0.1 mm 6 m/s 734 mmHg 89%
15:00 +15°C° 0.1 mm 6 m/s 734 mmHg 88%
16:00 +15°C° 0 mm 6 m/s 734 mmHg 88%
17:00 +15°C° 0 mm 6 m/s 734 mmHg 88%
18:00 +15°C° 0 mm 6 m/s 735 mmHg 88%
19:00 +14°C° 0 mm 5 m/s 735 mmHg 88%
20:00 +14°C° 0 mm 5 m/s 735 mmHg 88%
21:00 +14°C° 0 mm 5 m/s 735 mmHg 88%
22:00 +14°C° 0 mm 5 m/s 735 mmHg 90%
23:00 +14°C° 0 mm 5 m/s 735 mmHg 91%

17 Iulie, Vineri

Timp Temperatura Precipitaţii Vânt Presiune Umiditate
00:00 +14°C° 0 mm 5 m/s 735 mmHg 92%
01:00 +14°C° 0 mm 5 m/s 735 mmHg 92%
02:00 +14°C° 0 mm 5 m/s 735 mmHg 92%
03:00 +14°C° 0 mm 5 m/s 735 mmHg 93%
04:00 +14°C° 0 mm 5 m/s 735 mmHg 93%
05:00 +14°C° 0 mm 5 m/s 735 mmHg 93%
06:00 +14°C° 0 mm 5 m/s 735 mmHg 93%
07:00 +14°C° 0.1 mm 5 m/s 735 mmHg 93%
08:00 +14°C° 0.1 mm 5 m/s 735 mmHg 94%
09:00 +13°C° 0.1 mm 5 m/s 735 mmHg 94%
10:00 +14°C° 0 mm 5 m/s 736 mmHg 93%
11:00 +14°C° 0 mm 5 m/s 736 mmHg 92%
12:00 +14°C° 0 mm 5 m/s 736 mmHg 91%
13:00 +15°C° 0 mm 5 m/s 736 mmHg 89%
14:00 +15°C° 0 mm 5 m/s 736 mmHg 87%
15:00 +16°C° 0 mm 5 m/s 737 mmHg 86%
16:00 +18°C° 0 mm 4 m/s 737 mmHg 84%
17:00 +18°C° 0 mm 4 m/s 737 mmHg 83%
18:00 +19°C° 0 mm 4 m/s 737 mmHg 82%
19:00 +18°C° 0 mm 3 m/s 737 mmHg 85%
20:00 +17°C° 0 mm 3 m/s 737 mmHg 89%
21:00 +15°C° 0 mm 2 m/s 737 mmHg 92%
22:00 +15°C° 0 mm 2 m/s 737 mmHg 93%
23:00 +14°C° 0 mm 2 m/s 738 mmHg 94%

18 Iulie, Sâmbătă

Timp Temperatura Precipitaţii Vânt Presiune Umiditate
00:00 +14°C° 0 mm 2 m/s 738 mmHg 95%
01:00 +14°C° 0 mm 2 m/s 738 mmHg 95%
02:00 +13°C° 0 mm 2 m/s 738 mmHg 95%
03:00 +13°C° 0 mm 2 m/s 738 mmHg 95%
04:00 +13°C° 0 mm 2 m/s 738 mmHg 95%
05:00 +13°C° 0 mm 2 m/s 739 mmHg 95%
06:00 +14°C° 0 mm 2 m/s 739 mmHg 95%
07:00 +15°C° 0 mm 2 m/s 739 mmHg 90%
08:00 +17°C° 0 mm 2 m/s 739 mmHg 85%
09:00 +18°C° 0 mm 2 m/s 739 mmHg 80%
10:00 +19°C° 0 mm 2 m/s 739 mmHg 76%
11:00 +20°C° 0 mm 2 m/s 739 mmHg 72%
12:00 +22°C° 0 mm 3 m/s 739 mmHg 68%
13:00 +21°C° 0 mm 2 m/s 739 mmHg 72%
14:00 +20°C° 0 mm 2 m/s 739 mmHg 77%
15:00 +20°C° 0 mm 2 m/s 739 mmHg 82%
16:00 +20°C° 0 mm 2 m/s 739 mmHg 82%
17:00 +21°C° 0 mm 1 m/s 739 mmHg 81%
18:00 +21°C° 0 mm 1 m/s 739 mmHg 81%
19:00 +20°C° 0 mm 1 m/s 739 mmHg 83%
20:00 +19°C° 0 mm 1 m/s 739 mmHg 86%
21:00 +18°C° 0 mm 1 m/s 739 mmHg 88%
22:00 +18°C° 0 mm 1 m/s 739 mmHg 89%
23:00 +18°C° 0 mm 1 m/s 739 mmHg 90%
Arată mai mult